Weather History for Liberia, Costa Rica

Change the Weather History Date:

Saturday, August 10, 2013

  Actual Average Record
Temperature  
Mean Temperature 82 °F -  
Max Temperature 91 °F 86 °F 93 °F (2005)
Min Temperature 74 °F 74 °F 71 °F (2005)
Cooling Degree Days 18    
Growing Degree Days 32 (Base 50)    
Moisture  
Dew Point 71 °F    
Average Humidity 64    
Maximum Humidity 94    
Minimum Humidity 41    
Precipitation  
Precipitation 0.00 in - - ()
Sea Level Pressure  
Sea Level Pressure 29.85 in    
Wind  
Wind Speed 6 mph ()    
Max Wind Speed 17 mph    
Max Gust Speed -    
Visibility 7.1 miles    
Events      
Averages and records for this station are not official NWS values.
T = Trace of Precipitation, MM = Missing Value Source: Averaged Metar Reports

Daily Weather History Graph

Daily Weather History Graph

Search for Another Location

Airport:

Trip Planner

Search our weather history database for the weather conditions in past years. The results will help you decide how hot, cold, wet, or windy it might be!

Date:

Astronomy

Aug. 10, 2013 Rise Set
Actual Time 5:32 AM CST 6:02 PM CST
Civil Twilight 5:10 AM CST 6:24 PM CST
Nautical Twilight 4:44 AM CST 6:50 PM CST
Astronomical Twilight 4:18 AM CST 7:15 PM CST
Moon 8:25 AM CST (8/10) 8:41 PM CST (8/10)
Length of Visible Light 13h 14m
Length of Day
12h 30m
Waxing Crescent, 14% of the Moon is Illuminated
Aug 10
Waxing Crescent
Aug 14
First Quarter
Aug 20
Full
Aug 28
Last Quarter
Sep 5
New

Hourly Weather History & Observations

Time (CST) Temp. Heat Index Dew Point Humidity Pressure Visibility Wind Dir Wind Speed Gust Speed Precip Events Conditions
6:00 AM 75 °F - 73 °F 90% 29.88 in 1 mi NE 4.6 mph - -   Mist
6:00 AM 75.2 °F - 73.4 °F 94% 29.86 in 6.2 mi NE 4.6 mph - N/A   Mostly Cloudy
6:30 AM 78.8 °F - 73.4 °F 83% 29.87 in 1.2 mi East 2.3 mph - N/A   Mostly Cloudy
7:00 AM 78.8 °F - 75.2 °F 89% 29.87 in 6.2 mi SSE 3.5 mph - N/A   Mostly Cloudy
8:00 AM 84.2 °F 92.3 °F 75.2 °F 74% 29.88 in 6.2 mi Calm Calm - N/A   Partly Cloudy
9:00 AM 85 °F - 75 °F 65% 29.92 in 12 mi WSW 2.3 mph - -   Overcast
9:00 AM 86.0 °F 95.1 °F 75.2 °F 70% 29.91 in 6.2 mi WSW 2.3 mph - N/A   Scattered Clouds
10:00 AM 86.0 °F 91.8 °F 71.6 °F 62% 29.90 in 6.2 mi ENE 11.5 mph - N/A   Mostly Cloudy
11:00 AM 89.6 °F 96.2 °F 71.6 °F 55% 29.89 in 6.2 mi NE 10.4 mph - N/A   Mostly Cloudy
12:00 PM 88 °F - 70 °F 45% 29.89 in 12 mi ENE 17.3 mph - -   Partly Cloudy
12:00 PM 87.8 °F 92.6 °F 69.8 °F 55% 29.88 in 6.2 mi ENE 17.3 mph - N/A   Mostly Cloudy
1:00 PM 89.6 °F 96.2 °F 71.6 °F 55% 29.83 in 6.2 mi East 10.4 mph - N/A   Mostly Cloudy
2:00 PM 87.8 °F 91.4 °F 68.0 °F 52% 29.81 in 6.2 mi East 15.0 mph - N/A   Mostly Cloudy
3:00 PM 89 °F - 68 °F 41% 29.81 in 12 mi ESE 5.8 mph - -   Scattered Clouds
3:00 PM 89.6 °F 93.4 °F 68.0 °F 49% 29.79 in - ESE 8.1 mph - N/A   Clear
4:00 PM 87.8 °F 91.4 °F 68.0 °F 52% 29.80 in - ESE 9.2 mph - N/A   Clear
5:00 PM 86.0 °F 89.4 °F 68.0 °F 55% 29.81 in - ESE 5.8 mph - N/A   Clear
6:00 PM 83 °F - 70 °F 56% 29.83 in 12 mi East 4.6 mph - -   Clear
6:00 PM 82.4 °F 86.3 °F 69.8 °F 66% 29.82 in - East 4.6 mph - N/A   Clear
7:00 PM 80.6 °F 83.9 °F 69.8 °F 70% 29.84 in - ENE 8.1 mph - N/A   Clear
8:00 PM 78.8 °F - 69.8 °F 74% 29.85 in - ESE 5.8 mph - N/A   Clear